Regional Weather Roundup
Issued by NWS

Home | Current Version | Previous Version | Text Only | Print | Product List | Glossary Off
Versions: 1 2 3 4 5 6 7 8 9 10 11 12 13 14 15 16 17 18 19 20 21 22 23 24 25 26 27 28 29 30 31 32 33 34 35 36 37 38 39 40 41 42 43 44 45 46 47 48 49 50

000
ASUS43 KDTX 231410
RWRMI
MICHIGAN HOURLY REGIONAL WEATHER ROUNDUP
NATIONAL WEATHER SERVICE DETROIT/PONTIAC MI
1000 AM EDT WED APR 23 2014

NOTE: "FAIR" INDICATES FEW OR NO CLOUDS BELOW 12,000 FEET WITH NO
SIGNIFICANT WEATHER AND/OR OBSTRUCTION TO VISIBILITY.

MIZ047>049-052>055-059>063-066>070-074>076-081>083-231500-
SOUTHEAST LOWER MICHIGAN

CITY           SKY/WX    TMP DP  RH WIND       PRES   REMARKS
ADRIAN         SUNNY     40  29  64 NE14G21   30.10R
ALMA           SUNNY     40  23  50 N9        30.12F
ANN ARBOR      CLOUDY    38  28  67 N12       30.09R
BAD AXE        MOSUNNY   38  29  68 N14       30.08R
DETROIT CITY   CLOUDY    43  28  55 N12       30.08R
DETROIT        CLOUDY    40  29  64 NW12      30.09R
FLINT          MOSUNNY   42  28  57 N9        30.10R
GROSSE ILE     CLOUDY    39  30  70 NW10      30.07R
HILLSDALE      SUNNY     40  28  62 N12       30.08S
HOWELL         MOSUNNY   38  29  70 NW12      30.09S

CITY           SKY/WX    TMP DP  RH WIND       PRES   REMARKS
JACKSON        SUNNY     41  28  60 N14       30.09S
LAMBERTVILLE   PTSUNNY   41  30  65 NW10      30.09S
LANSING        SUNNY     40  28  62 N12       30.13R
LAPEER         NOT AVBL
MASON          SUNNY     39  29  66 N9        30.11S
MONROE         CLOUDY    39  30  70 N12G18    30.08R
MT. CLEMENS    PTSUNNY   40  28  61 N16G23    30.05R
PONTIAC        PTSUNNY   38  27  64 N14       30.07R
PORT HOPE        N/A     38  29  70 N6        30.07R
PORT HURON     CLOUDY    39  30  70 NW10G17   30.06S
TRI CITIES     SUNNY     42  26  53 N9        30.12R
YPSILANTI      CLOUDY    42  29  59 N15       30.09R
$$
MIZ043>046-050>051-056>058-064>065-071>073-077>080-231500-
SOUTHWEST LOWER MICHIGAN

CITY           SKY/WX    TMP DP  RH WIND       PRES   REMARKS
BATTLE CREEK   SUNNY     40  27  59 NE8       30.12S
BENTON HARBOR  SUNNY     38  31  76 N8        30.16R
BIG RAPIDS     SUNNY     39  26  58 N6        30.12F
COLDWATER      SUNNY     39  29  67 N9        30.12R
HOLLAND        SUNNY     42  28  57 N8        30.17R
GRAND RAPIDS   MOSUNNY   42  26  53 N9        30.14R
KALAMAZOO      SUNNY     41  27  57 N10       30.14R
MARSHALL       SUNNY     38  27  63 N8        30.11R
MUSKEGON       MOSUNNY   43  25  49 NE10      30.17R
$$
MIZ016>042-231500-
NORTHERN LOWER MICHIGAN

CITY           SKY/WX    TMP DP  RH WIND       PRES   REMARKS
ALPENA         SUNNY     39  18  42 N12       30.11R
BEAVER ISLAND  SUNNY     35  24  63 NW6       30.17S
BELLAIRE       SUNNY     38  22  53 N5        30.15S
CADILLAC       SUNNY     37  22  54 N12       30.11S
CHARLEVOIX     SUNNY     35  27  71 N7        30.18S
FRANKFORT      SUNNY     38  29  69 N5        30.17S
GAYLORD        SUNNY     35  17  47 NW5       30.11R
GRAYLING       SUNNY     38  18  44 N8        30.11S
HARBOR SPRINGS SUNNY     38  18  44 N3        30.14S
HOUGHTON LAKE  SUNNY     38  19  46 N8        30.11R
MANISTEE       SUNNY     39  28  65 NW10      30.17S
OSCODA         SUNNY     41  20  42 N13       30.09S
PELLSTON       SUNNY     38  16  40 N7        30.15R
TRAVERSE CITY  MOSUNNY   37  26  64 VRB3      30.15R
$$
MIZ007>008-015-231500-
EASTERN UPPER MICHIGAN

CITY           SKY/WX    TMP DP  RH WIND       PRES   REMARKS
KINROSS        SUNNY     36  16  44 NW12      30.13R
MACKINAC ISLAN SUNNY     36  19  49 N5        30.14R
NEWBERRY       SUNNY     35  17  46 N9        30.15R
S. S. MARIE    SUNNY     37  14  38 VRB6      30.12S
$$
MIZ004>006-011>014-085-231500-
CENTRAL UPPER MICHIGAN

CITY           SKY/WX    TMP DP  RH WIND       PRES   REMARKS
MANISTIQUE     SUNNY     39  21  50 N6        30.16F
ESCANABA       SUNNY     39  25  56 NW8       30.18S
MENOMINEE      MOSUNNY   39  23  52 NE7       30.19R
SAWYER-GWINN   SUNNY     37  25  60 N5        30.17R
$$
MIZ001>003-009>011-084-231500-
WESTERN UPPER MICHIGAN

CITY           SKY/WX    TMP DP  RH WIND       PRES   REMARKS
IRON MOUNTAIN  MOSUNNY   39  24  55 N3        30.16S
HOUGHTON       SUNNY     42  22  44 CALM      30.17R
COPPER HARBOR    N/A     37  28  70 N9        30.18S
IRONWOOD       MOSUNNY   41  25  52 CALM      30.12F
$$

ABBREVIATIONS USED IN REMARKS
   TC - TEMPERATURE IN CELSIUS
  WCI - WIND CHILL INDEX
   HX - HEAT INDEX
  VSB - VISIBILITY




USA.gov is the U.S. government's official web portal to all federal, state and local government web resources and services.